Regional Weather Roundup
Issued by NWS

Home | Current Version | Previous Version | Graphics & Text | Print | Product List | Glossary On
Versions: 1 2 3 4 5 6 7 8 9 10 11 12 13 14 15 16 17 18 19 20 21 22 23 24 25 26 27 28 29 30 31 32 33 34 35 36 37 38 39 40 41 42 43 44 45 46 47 48 49 50
308
ASUS45 KBOU 230007
RWRCO

WEATHER ROUNDUP FOR COLORADO
NATIONAL WEATHER SERVICE DENVER/BOULDER CO
500 PM MST SUN JAN 22 2017

NOTE: "FAIR" INDICATES FEW OR NO CLOUDS BELOW 12000 FEET WITH NO
SIGNIFICANT WEATHER AND/OR OBSTRUCTIONS TO VISIBILITY.

COZ001>005-013-030-031-230100-
...NORTHWEST COLORADO...

CITY           SKY/WX    TMP DP  RH WIND       PRES   REMARKS
CRAIG          FAIR      25  14  63 SE3       29.94R
HAYDEN         FAIR      23  10  58 E7        29.93R WCI  15
MEEKER         CLOUDY    31  17  56 SW8       29.95R WCI  23
MOUNT WERNER   NOT AVBL
STEAMBOAT SPGS FAIR      26  13  57 CALM      29.92S
WALDEN           N/A     19   9  63 S10       29.91S WCI   8
$$

COZ006>008-011-230100-
...WEST CENTRAL VALLEYS...

CITY           SKY/WX    TMP DP  RH WIND       PRES   REMARKS
GRAND JUNCTION CLOUDY    38  24  57 SE14      30.01R
MONTROSE       CLOUDY    35  23  61 NW6       30.05R WCI  30
EAGLE          CLEAR     32  16  51 SE5       29.98S WCI  27
RIFLE          CLOUDY    34  21  59 W3        29.99R
DELTA          CLOUDY    39  20  45 W6        30.05R
NUCLA          NOT AVBL
$$

COZ017>023-064>068-230100-
...SOUTHWEST COLORADO...

CITY           SKY/WX    TMP DP  RH WIND       PRES   REMARKS
DURANGO        CLOUDY    27  19  72 NE6       30.09F WCI  20
CORTEZ         CLOUDY    33  23  66 CALM      30.08F
PAGOSA SPRINGS CLOUDY    26  16  66 S3        30.09S
TELLURIDE      NOT AVBL
WOLF CREEK PAS CLOUDY    10   9  92 S15G21    30.04S WCI  -6
$$

COZ009-010-012-014-032>034-037-058>063-230100-
...CENTRAL COLORADO...

CITY           SKY/WX    TMP DP  RH WIND       PRES   REMARKS
ASPEN          CLOUDY    26  14  60 CALM      29.95R
BUENA VISTA    MOCLDY    29   6  38 SE9G18    29.94R WCI  20
COPPER MTN     CLOUDY    18   0  45 MISG      29.90R
BERTHOUD PASS  NOT AVBL
COTTONWOOD PAS CLOUDY    28  -2  26 S6G28     29.93R WCI  22
GUNNISON       MOCLDY    21  12  68 N5        30.04R WCI  15
KREMMLING      FAIR      28  14  54 E9        29.94F WCI  20
LEADVILLE      CLOUDY    19   4  51 NE3       29.90F
MONARCH PASS   CLOUDY     9   5  85 W8        30.04S WCI  -4
SALIDA         FAIR      32   8  37 SW7G18    30.03S WCI  26
SUNLIGHT       FOG      N/A N/A N/A S12G24    29.95S VSB 1/4
WILKERSON PASS FAIR      16   0  48 SW18G26   29.90S WCI  -1
$$

COZ069>075-230100-
...SAN LUIS VALLEY/SANGRE DE CRISTO MOUNTAINS...

CITY           SKY/WX    TMP DP  RH WIND       PRES   REMARKS
ALAMOSA        MOCLDY    26  17  68 CALM      30.03R
LA VETA PASS   FAIR      21   5  49 NE33G47   29.92R WCI   2
SAGUACHE       FAIR      25  14  63 SE3       30.04S
$$

COZ035-036-038>040-230100-
...NORTHERN COLORADO FRONT RANGE...

CITY           SKY/WX    TMP DP  RH WIND       PRES   REMARKS
DENVER INTL AP MOCLDY    35  16  45 E12       29.87F WCI  27
DMNS CITY PARK   N/A     40   4  22 E12       29.86S
AURORA         MOCLDY    33  12  42 SE9       29.87F WCI  25
FRONT RANGE AP PTCLDY    37  18  44 E9        29.89S
ERIE MUNI ARPT FAIR      40  10  28 E10       29.87R
BOULDER MUN AP FAIR      41   9  26 SE5       29.86R
CENTENNIAL     MOCLDY    38   5  25 SE7       29.87F
BROOMFIELD     MOCLDY    41   7  24 E8        29.86F
FORT COLLINS   FAIR      39  12  33 SE9       29.86S
LONGMONT       FAIR      42  13  30 SE7       29.88S
$$

COZ041-046-047-076>085-087-088-230100-
...PIKES PEAK/PALMER DIVIDE AND SOUTHERN FOOTHILLS...

CITY           SKY/WX    TMP DP  RH WIND       PRES   REMARKS
COLO. SPRINGS  MOCLDY    37   5  26 SE10      29.91S
A. F. ACADEMY  FAIR      36   2  24 S7        29.89S
SCHRIEVER AFB  NOT AVBL
ELLICOTT       FAIR     N/A N/A N/A S9        29.91S
FALCON         FAIR      32   6  33 S5        29.91F WCI  27
FORT CARSON    NOT AVBL
LIMON          FAIR      30  16  56 CALM      29.91S
MONUMENT HILL  FAIR      30  12  47 SE8       29.90F WCI  23
TRINIDAD       FAIR      32  20  61 S10       29.94R WCI  24
$$

COZ042>045-048>051-090-091-230100-
...NORTHEAST COLORADO...

CITY           SKY/WX    TMP DP  RH WIND       PRES   REMARKS
GREELEY ARPT   FAIR      38  17  42 E10       29.87F
AKRON          FAIR      35  16  45 NW5       29.90S WCI  31
BURLINGTON     FAIR      42  25  50 NW6       29.93R
WRAY           FAIR      37  23  56 NW8       29.91
STERLING       FAIR      39  19  45 N6        29.89S
HOLYOKE        FAIR      41  25  52 NW5       29.90S
FORT MORGAN    FAIR      38  15  39 E5        29.90F
$$

COZ086-089-092>099-230100-
...SOUTHEAST COLORADO...

CITY           SKY/WX    TMP DP  RH WIND       PRES   REMARKS
PUEBLO         FAIR      45  17  32 SE9       29.91R
LA JUNTA       FAIR      40  25  55 S5        29.92F
LAMAR          FAIR      40  26  57 SW6       29.93R
SPRINGFIELD      N/A     38  20  48 NW6       29.95S
$$




USA.gov is the U.S. government's official web portal to all federal, state and local government web resources and services.